| time (UTC) | temp F | wind direction | speed MPH | gust MPH | rain 1hr in | rain 24hr in | rain mn in | humidity % | barometer mb |
| 20260504081537 | 43 | 245 | 0.0 | 2.0 | 0.00 | 0.00 | 0.00 | 86 | 1011.0 |
| 20260504081018 | 43 | 262 | 0.0 | 2.0 | 0.00 | 0.00 | 0.00 | 84 | 1011.0 |
| 20260504080519 | 43 | 0 | 0.0 | 2.0 | 0.00 | 0.00 | 0.00 | 82 | 1011.0 |
| 20260504050522 | 46 | 124 | 3.0 | 9.0 | 0.00 | 0.00 | 0.00 | 67 | 1011.3 |
| 20260504045520 | 46 | 29 | 1.0 | 4.0 | 0.00 | 0.00 | 0.00 | 66 | 1011.3 |
| 20260504045019 | 47 | 160 | 1.0 | 6.0 | 0.00 | 0.00 | 0.00 | 66 | 1011.4 |
| 20260504044535 | 47 | 188 | 1.0 | 6.0 | 0.00 | 0.00 | 0.00 | 65 | 1011.4 |
| 20260504044020 | 46 | 110 | 1.0 | 5.0 | 0.00 | 0.00 | 0.00 | 66 | 1011.4 |
| 20260504043518 | 46 | 141 | 1.0 | 3.0 | 0.00 | 0.00 | 0.00 | 66 | 1011.5 |
| 20260504043036 | 46 | 0 | 0.0 | 3.0 | 0.00 | 0.00 | 0.00 | 68 | 1011.4 |
| 20260504042520 | 46 | 140 | 1.0 | 5.0 | 0.00 | 0.00 | 0.00 | 67 | 1011.3 |
| 20260504042016 | 46 | 97 | 1.0 | 5.0 | 0.00 | 0.00 | 0.00 | 68 | 1011.4 |
| 20260504041531 | 45 | 110 | 1.0 | 2.0 | 0.00 | 0.00 | 0.00 | 70 | 1011.4 |
| 20260504041017 | 45 | 15 | 1.0 | 3.0 | 0.00 | 0.00 | 0.00 | 70 | 1011.4 |
| 20260504040517 | 46 | 338 | 1.0 | 3.0 | 0.00 | 0.00 | 0.00 | 68 | 1011.4 |
| 20260504040041 | 45 | 139 | 0.0 | 6.0 | 0.00 | 0.00 | 0.00 | 68 | 1011.2 |
| 20260504035522 | 46 | 341 | 2.0 | 7.0 | 0.00 | 0.00 | 0.00 | 66 | 1011.2 |
| 20260504035019 | 46 | 188 | 3.0 | 7.0 | 0.00 | 0.00 | 0.00 | 65 | 1011.2 |
| 20260504034537 | 45 | 150 | 3.0 | 7.0 | 0.00 | 0.00 | 0.00 | 62 | 1011.3 |
| 20260504034016 | 45 | 347 | 2.0 | 5.0 | 0.00 | 0.00 | 0.00 | 65 | 1011.2 |
| 20260504033519 | 45 | 153 | 1.0 | 5.0 | 0.00 | 0.00 | 0.00 | 64 | 1011.3 |
| 20260504033048 | 43 | 68 | 1.0 | 3.0 | 0.00 | 0.00 | 0.00 | 71 | 1011.2 |
| 20260504032519 | 43 | 310 | 0.0 | 3.0 | 0.00 | 0.00 | 0.00 | 67 | 1011.1 |
| 20260504032018 | 43 | 173 | 0.0 | 3.0 | 0.00 | 0.00 | 0.00 | 72 | 1011.2 |
| 20260504031537 | 43 | 342 | 1.0 | 3.0 | 0.00 | 0.00 | 0.00 | 69 | 1011.2 |
| 20260504031019 | 42 | 48 | 1.0 | 3.0 | 0.00 | 0.00 | 0.00 | 71 | 1011.1 |
| 20260504030519 | 42 | 67 | 1.0 | 3.0 | 0.00 | 0.00 | 0.00 | 72 | 1011.0 |
| 20260504030037 | 42 | 323 | 2.0 | 3.0 | 0.00 | 0.00 | 0.00 | 74 | 1011.2 |
| 20260504025519 | 42 | 326 | 1.0 | 3.0 | 0.00 | 0.00 | 0.00 | 74 | 1011.0 |
| 20260504025022 | 41 | 340 | 1.0 | 3.0 | 0.00 | 0.00 | 0.00 | 73 | 1011.1 |
| 20260504024543 | 41 | 142 | 1.0 | 3.0 | 0.00 | 0.00 | 0.00 | 68 | 1011.1 |
| 20260504024018 | 41 | 317 | 1.0 | 2.0 | 0.00 | 0.00 | 0.00 | 76 | 1011.2 |
| 20260504023520 | 40 | 16 | 0.0 | 2.0 | 0.00 | 0.00 | 0.00 | 74 | 1011.2 |
| 20260504023039 | 40 | 75 | 0.0 | 4.0 | 0.00 | 0.00 | 0.00 | 76 | 1011.2 |
| 20260504022520 | 40 | 16 | 2.0 | 4.0 | 0.00 | 0.00 | 0.00 | 76 | 1011.3 |
| 20260504022020 | 40 | 53 | 1.0 | 2.0 | 0.00 | 0.00 | 0.00 | 76 | 1011.2 |
| 20260504021547 | 39 | 0 | 1.0 | 3.0 | 0.00 | 0.00 | 0.00 | 73 | 1011.5 |
| 20260504021019 | 39 | 316 | 1.0 | 3.0 | 0.00 | 0.00 | 0.00 | 76 | 1011.4 |
| 20260504020520 | 39 | 330 | 1.0 | 3.0 | 0.00 | 0.00 | 0.00 | 78 | 1011.4 |
| 20260504020037 | 38 | 29 | 0.0 | 2.0 | 0.00 | 0.00 | 0.00 | 75 | 1011.3 |
| 20260504015521 | 38 | 69 | 0.0 | 3.0 | 0.00 | 0.00 | 0.00 | 76 | 1011.3 |
| 20260504015022 | 39 | 338 | 1.0 | 3.0 | 0.00 | 0.00 | 0.00 | 78 | 1011.4 |
| 20260504014536 | 38 | 77 | 0.0 | 2.0 | 0.00 | 0.00 | 0.00 | 77 | 1011.3 |
| 20260504014019 | 39 | 0 | 0.0 | 2.0 | 0.00 | 0.00 | 0.00 | 78 | 1011.2 |
| 20260504013522 | 39 | 23 | 1.0 | 2.0 | 0.00 | 0.00 | 0.00 | 78 | 1011.0 |
| 20260504013041 | 39 | 48 | 1.0 | 3.0 | 0.00 | 0.00 | 0.00 | 78 | 1011.1 |
| 20260504012517 | 39 | 77 | 1.0 | 3.0 | 0.00 | 0.00 | 0.00 | 77 | 1011.0 |
| 20260504012021 | 39 | 0 | 0.0 | 0.0 | 0.00 | 0.00 | 0.00 | 77 | 1011.0 |
| 20260504011541 | 39 | 0 | 0.0 | 0.0 | 0.00 | 0.00 | 0.00 | 78 | 1010.8 |
| 20260504011020 | 39 | 0 | 0.0 | 0.0 | 0.00 | 0.00 | 0.00 | 78 | 1010.7 |
| 20260504010520 | 39 | 0 | 0.0 | 0.0 | 0.00 | 0.00 | 0.00 | 77 | 1010.7 |
| 20260504010037 | 39 | 0 | 0.0 | 4.0 | 0.00 | 0.00 | 0.00 | 77 | 1010.6 |
| 20260504005519 | 39 | 0 | 0.0 | 4.0 | 0.00 | 0.00 | 0.00 | 77 | 1010.6 |
| 20260504005019 | 39 | 356 | 2.0 | 4.0 | 0.00 | 0.00 | 0.00 | 73 | 1010.6 |
| 20260504004543 | 39 | 0 | 0.0 | 3.0 | 0.00 | 0.00 | 0.00 | 77 | 1010.5 |
| 20260504004019 | 40 | 321 | 1.0 | 3.0 | 0.00 | 0.00 | 0.00 | 73 | 1010.3 |
| 20260504003520 | 40 | 0 | 0.0 | 3.0 | 0.00 | 0.00 | 0.00 | 74 | 1010.3 |
| 20260504003036 | 40 | 0 | 1.0 | 3.0 | 0.00 | 0.00 | 0.00 | 72 | 1010.1 |
| 20260504002516 | 40 | 105 | 0.0 | 2.0 | 0.00 | 0.00 | 0.00 | 74 | 1010.2 |
| 20260504002017 | 41 | 0 | 0.0 | 2.0 | 0.00 | 0.00 | 0.00 | 74 | 1010.0 |
| 20260504001534 | 41 | 74 | 0.0 | 1.0 | 0.00 | 0.00 | 0.00 | 71 | 1010.0 |
| 20260504001022 | 41 | 75 | 0.0 | 2.0 | 0.00 | 0.00 | 0.00 | 70 | 1009.9 |
| 20260504000519 | 41 | 0 | 0.0 | 2.0 | 0.00 | 0.00 | 0.00 | 72 | 1009.8 |
| 20260504000035 | 42 | 352 | 0.0 | 2.0 | 0.00 | 0.00 | 0.00 | 71 | 1009.7 |
| 20260503235519 | 42 | 0 | 0.0 | 1.0 | 0.00 | 0.00 | 0.00 | 68 | 1009.6 |
| 20260503235020 | 43 | 356 | 0.0 | 1.0 | 0.00 | 0.00 | 0.00 | 69 | 1009.6 |
| 20260503234535 | 43 | 0 | 0.0 | 1.0 | 0.00 | 0.00 | 0.00 | 70 | 1009.6 |
| 20260503234018 | 44 | 340 | 0.0 | 1.0 | 0.00 | 0.00 | 0.00 | 68 | 1009.5 |
| 20260503233517 | 44 | 344 | 0.0 | 2.0 | 0.00 | 0.00 | 0.00 | 67 | 1009.4 |
| 20260503233037 | 45 | 344 | 0.0 | 2.0 | 0.00 | 0.00 | 0.00 | 64 | 1009.4 |
| 20260503232519 | 45 | 87 | 1.0 | 2.0 | 0.00 | 0.00 | 0.00 | 64 | 1009.4 |
| 20260503232018 | 45 | 351 | 1.0 | 2.0 | 0.00 | 0.00 | 0.00 | 64 | 1009.3 |
| 20260503231540 | 46 | 0 | 0.0 | 4.0 | 0.00 | 0.00 | 0.00 | 61 | 1009.4 |
| 20260503231021 | 47 | 285 | 2.0 | 4.0 | 0.00 | 0.00 | 0.00 | 58 | 1009.4 |
| 20260503230517 | 47 | 0 | 0.0 | 4.0 | 0.00 | 0.00 | 0.00 | 55 | 1009.3 |
| 20260503230037 | 48 | 93 | 2.0 | 4.0 | 0.00 | 0.00 | 0.00 | 54 | 1009.2 |
| 20260503225516 | 49 | 274 | 0.0 | 6.0 | 0.00 | 0.00 | 0.00 | 49 | 1009.3 |
| 20260503225020 | 50 | 68 | 1.0 | 6.0 | 0.00 | 0.00 | 0.00 | 43 | 1009.2 |
| 20260503224535 | 51 | 328 | 2.0 | 6.0 | 0.00 | 0.00 | 0.00 | 42 | 1009.2 |
| 20260503224017 | 51 | 38 | 2.0 | 6.0 | 0.00 | 0.00 | 0.00 | 38 | 1009.2 |
| 20260503223519 | 52 | 101 | 1.0 | 4.0 | 0.00 | 0.00 | 0.00 | 40 | 1009.1 |
| 20260503223036 | 53 | 246 | 0.0 | 3.0 | 0.00 | 0.00 | 0.00 | 37 | 1009.2 |
| 20260503222519 | 53 | 113 | 1.0 | 6.0 | 0.00 | 0.00 | 0.00 | 38 | 1009.1 |
| 20260503222016 | 53 | 62 | 2.0 | 6.0 | 0.00 | 0.00 | 0.00 | 39 | 1009.2 |
| 20260503221538 | 53 | 69 | 3.0 | 7.0 | 0.00 | 0.00 | 0.00 | 39 | 1009.2 |
| 20260503221019 | 53 | 56 | 2.0 | 7.0 | 0.00 | 0.00 | 0.00 | 41 | 1009.2 |
| 20260503220520 | 53 | 89 | 2.0 | 7.0 | 0.00 | 0.00 | 0.00 | 38 | 1009.2 |
| 20260503220038 | 53 | 139 | 2.0 | 6.0 | 0.00 | 0.00 | 0.00 | 39 | 1009.4 |
| 20260503215516 | 53 | 233 | 1.0 | 5.0 | 0.00 | 0.00 | 0.00 | 40 | 1009.2 |
| 20260503215019 | 53 | 90 | 2.0 | 6.0 | 0.00 | 0.00 | 0.00 | 38 | 1009.3 |
| 20260503214536 | 53 | 321 | 1.0 | 6.0 | 0.00 | 0.00 | 0.00 | 43 | 1009.3 |
| 20260503214016 | 53 | 172 | 1.0 | 7.0 | 0.00 | 0.00 | 0.00 | 42 | 1009.3 |
| 20260503213519 | 52 | 79 | 3.0 | 7.0 | 0.00 | 0.00 | 0.00 | 41 | 1009.3 |
| 20260503213037 | 52 | 56 | 3.0 | 8.0 | 0.00 | 0.00 | 0.00 | 41 | 1009.3 |
| 20260503212518 | 51 | 212 | 3.0 | 8.0 | 0.00 | 0.00 | 0.00 | 42 | 1009.4 |
| 20260503212017 | 51 | 4 | 2.0 | 7.0 | 0.00 | 0.00 | 0.00 | 45 | 1009.4 |
| 20260503211540 | 51 | 95 | 3.0 | 6.0 | 0.00 | 0.00 | 0.00 | 43 | 1009.2 |
| 20260503211019 | 50 | 56 | 2.0 | 10.0 | 0.00 | 0.00 | 0.00 | 44 | 1009.3 |
| 20260503210516 | 50 | 338 | 2.0 | 10.0 | 0.00 | 0.00 | 0.00 | 43 | 1009.3 |
| 20260503210035 | 50 | 325 | 2.0 | 6.0 | 0.00 | 0.00 | 0.00 | 43 | 1009.4 |
| 20260503205524 | 50 | 353 | 2.0 | 8.0 | 0.00 | 0.00 | 0.00 | 45 | 1009.2 |
| 20260503205020 | 49 | 225 | 3.0 | 8.0 | 0.00 | 0.00 | 0.00 | 44 | 1009.3 |
| 20260503204534 | 49 | 28 | 2.0 | 10.0 | 0.00 | 0.00 | 0.00 | 45 | 1009.4 |
| 20260503204017 | 49 | 143 | 3.0 | 10.0 | 0.00 | 0.00 | 0.00 | 46 | 1009.5 |
| 20260503203519 | 49 | 308 | 5.0 | 10.0 | 0.00 | 0.00 | 0.00 | 45 | 1009.6 |
| 20260503203034 | 49 | 98 | 4.0 | 9.0 | 0.00 | 0.00 | 0.00 | 43 | 1009.4 |
| 20260503202520 | 50 | 96 | 3.0 | 8.0 | 0.00 | 0.00 | 0.00 | 47 | 1009.5 |
| 20260503202017 | 49 | 54 | 2.0 | 9.0 | 0.00 | 0.00 | 0.00 | 45 | 1009.5 |
| 20260503201538 | 49 | 144 | 4.0 | 9.0 | 0.00 | 0.00 | 0.00 | 44 | 1009.5 |
| 20260503201017 | 50 | 57 | 4.0 | 8.0 | 0.00 | 0.00 | 0.00 | 47 | 1009.4 |
| 20260503200518 | 50 | 206 | 2.0 | 5.0 | 0.00 | 0.00 | 0.00 | 45 | 1009.5 |
| 20260503200037 | 50 | 175 | 1.0 | 11.0 | 0.00 | 0.00 | 0.00 | 47 | 1009.6 |
| 20260503195521 | 49 | 107 | 1.0 | 11.0 | 0.00 | 0.00 | 0.00 | 47 | 1009.5 |
| 20260503195017 | 50 | 54 | 2.0 | 8.0 | 0.00 | 0.00 | 0.00 | 45 | 1009.7 |
| 20260503194542 | 49 | 15 | 2.0 | 11.0 | 0.00 | 0.00 | 0.00 | 46 | 1009.8 |
| 20260503194019 | 49 | 253 | 4.0 | 11.0 | 0.00 | 0.00 | 0.00 | 45 | 1009.9 |
| 20260503193516 | 49 | 55 | 2.0 | 10.0 | 0.00 | 0.00 | 0.00 | 46 | 1009.9 |
| 20260503193041 | 49 | 279 | 4.0 | 10.0 | 0.00 | 0.00 | 0.00 | 44 | 1010.2 |
| 20260503192516 | 49 | 293 | 2.0 | 10.0 | 0.00 | 0.00 | 0.00 | 45 | 1010.0 |
| 20260503192018 | 48 | 100 | 3.0 | 9.0 | 0.00 | 0.00 | 0.00 | 45 | 1010.3 |
| 20260503191536 | 48 | 340 | 3.0 | 11.0 | 0.00 | 0.00 | 0.00 | 45 | 1010.1 |
| 20260503191023 | 49 | 105 | 4.0 | 12.0 | 0.00 | 0.00 | 0.00 | 44 | 1010.2 |
| 20260503190517 | 49 | 222 | 6.0 | 12.0 | 0.00 | 0.00 | 0.00 | 44 | 1010.3 |
| 20260503190042 | 48 | 100 | 3.0 | 8.0 | 0.00 | 0.00 | 0.00 | 46 | 1010.3 |
| 20260503185518 | 48 | 257 | 3.0 | 11.0 | 0.00 | 0.00 | 0.00 | 46 | 1010.4 |
| 20260503185019 | 48 | 23 | 5.0 | 15.0 | 0.00 | 0.00 | 0.00 | 46 | 1010.2 |
| 20260503184531 | 48 | 238 | 3.0 | 15.0 | 0.00 | 0.00 | 0.00 | 48 | 1010.4 |
| 20260503184018 | 48 | 15 | 3.0 | 12.0 | 0.00 | 0.00 | 0.00 | 48 | 1010.6 |
| 20260503183520 | 48 | 184 | 2.0 | 12.0 | 0.00 | 0.00 | 0.00 | 46 | 1010.3 |
| 20260503183031 | 48 | 218 | 3.0 | 8.0 | 0.00 | 0.00 | 0.00 | 45 | 1010.4 |
| 20260503182523 | 48 | 264 | 2.0 | 8.0 | 0.00 | 0.00 | 0.00 | 49 | 1010.6 |
| 20260503182017 | 48 | 278 | 3.0 | 13.0 | 0.00 | 0.00 | 0.00 | 47 | 1010.4 |
| 20260503181538 | 47 | 79 | 3.0 | 13.0 | 0.00 | 0.00 | 0.00 | 47 | 1010.5 |
| 20260503181018 | 47 | 24 | 4.0 | 8.0 | 0.00 | 0.00 | 0.00 | 47 | 1010.5 |
| 20260503180518 | 47 | 334 | 3.0 | 11.0 | 0.00 | 0.00 | 0.00 | 51 | 1010.5 |
| 20260503180036 | 47 | 245 | 2.0 | 11.0 | 0.00 | 0.00 | 0.00 | 47 | 1010.4 |
| 20260503175517 | 47 | 354 | 5.0 | 11.0 | 0.00 | 0.00 | 0.00 | 46 | 1010.3 |
| 20260503175022 | 47 | 335 | 4.0 | 11.0 | 0.00 | 0.00 | 0.00 | 45 | 1010.5 |
| 20260503174549 | 47 | 79 | 3.0 | 10.0 | 0.00 | 0.00 | 0.00 | 48 | 1010.3 |
| 20260503174016 | 47 | 144 | 3.0 | 13.0 | 0.00 | 0.00 | 0.00 | 49 | 1010.5 |
| 20260503173520 | 46 | 235 | 3.0 | 13.0 | 0.00 | 0.00 | 0.00 | 49 | 1010.4 |
| 20260503173040 | 46 | 295 | 3.0 | 9.0 | 0.00 | 0.00 | 0.00 | 48 | 1010.6 |
| 20260503172518 | 46 | 275 | 4.0 | 10.0 | 0.00 | 0.00 | 0.00 | 48 | 1010.5 |
| 20260503172019 | 46 | 12 | 2.0 | 10.0 | 0.00 | 0.00 | 0.00 | 50 | 1010.6 |
| 20260503171537 | 46 | 122 | 5.0 | 11.0 | 0.00 | 0.00 | 0.00 | 48 | 1010.5 |
| 20260503171019 | 46 | 280 | 3.0 | 11.0 | 0.00 | 0.00 | 0.00 | 48 | 1010.4 |
| 20260503170519 | 47 | 309 | 4.0 | 11.0 | 0.00 | 0.00 | 0.00 | 48 | 1010.4 |
| 20260503150518 | 44 | 174 | 1.0 | 10.0 | 0.00 | 0.05 | 0.00 | 59 | 1010.7 |
| 20260503131015 | 42 | 276 | 3.0 | 11.0 | 0.00 | 0.05 | 0.00 | 73 | 1011.4 |
| 20260503130518 | 42 | 290 | 1.0 | 11.0 | 0.00 | 0.05 | 0.00 | 74 | 1011.4 |
| 20260503110521 | 39 | 345 | 1.0 | 2.0 | 0.00 | 0.10 | 0.00 | 84 | 1011.1 |